Powrót do katalogu

STARLINK-31620

AktywnyŁącznośćVLEO
NORAD 59460·PAYLOAD·🇺🇸 United States

Wystrzelony Apr 10, 2024 z Cape Canaveral Space Force Station

Loading…

Następne Przeloty (najbliższe 24 godziny)

TLE

ŚwieżeSource: CelesTrak SupGP

Epoka: Sep 15, 2026, 02:55 UTC

1 59460C 24068F   26258.12201389 -.00018900  00000+0 -68442-3 0  2587
2 59460  43.0042  41.2457 0001625 272.8810  97.7937 15.27594268    16

Śledź STARLINK-31620 w czasie rzeczywistym z AllMySat

Download on the App Store